When you browse on this site, cookies collect data to enhance your experience and personalize the content and advertising you see.
Visit our Privacy Policy to learn more. By continuing to use the site, you agree to this use of cookies and data.
  • In Austria
  • List of Countries
  • For 7 days
  • Water Temperature
  • Weather Map
  • News
  • Weather Widgets
  • user-avatar
    Login

    Hourly Weather El Arenal

    Today, 14 November, Thursday

    Time Temperature Precipitation Wind Pressure Humidity
    00:00 +13°C° 0 mm 1 mps 589 mmHg 79%
    01:00 +12°C° 0 mm 1 mps 589 mmHg 78%
    02:00 +12°C° 0 mm 1 mps 589 mmHg 77%
    03:00 +12°C° 0 mm 1 mps 589 mmHg 77%
    04:00 +12°C° 0 mm 1 mps 589 mmHg 78%
    05:00 +10°C° 0 mm 0 mps 589 mmHg 78%
    06:00 +13°C° 0 mm 1 mps 590 mmHg 72%
    07:00 +14°C° 0 mm 1 mps 591 mmHg 66%
    08:00 +16°C° 0 mm 1 mps 592 mmHg 60%
    09:00 +18°C° 0 mm 1 mps 592 mmHg 56%
    10:00 +20°C° 0 mm 1 mps 593 mmHg 51%
    11:00 +20°C° 0 mm 2 mps 593 mmHg 47%
    12:00 +20°C° 0.1 mm 2 mps 592 mmHg 48%
    13:00 +20°C° 0.1 mm 2 mps 592 mmHg 49%
    14:00 +20°C° 0.1 mm 3 mps 591 mmHg 50%
    15:00 +19°C° 0.5 mm 3 mps 591 mmHg 60%
    16:00 +17°C° 0.5 mm 3 mps 591 mmHg 70%
    17:00 +16°C° 0.5 mm 3 mps 590 mmHg 80%
    18:00 +14°C° 0.3 mm 3 mps 591 mmHg 83%
    19:00 +13°C° 0.3 mm 3 mps 591 mmHg 86%
    20:00 +12°C° 0.3 mm 3 mps 592 mmHg 89%
    21:00 +12°C° 0.1 mm 3 mps 592 mmHg 89%
    22:00 +12°C° 0.1 mm 3 mps 592 mmHg 89%
    23:00 +13°C° 0.1 mm 2 mps 592 mmHg 89%

    Tomorrow, 15 November, Friday

    Time Temperature Precipitation Wind Pressure Humidity
    00:00 +13°C° 0.2 mm 2 mps 591 mmHg 90%
    01:00 +13°C° 0.2 mm 2 mps 591 mmHg 90%
    02:00 +12°C° 0.2 mm 2 mps 591 mmHg 90%
    03:00 +12°C° 0.1 mm 2 mps 591 mmHg 91%
    04:00 +12°C° 0.1 mm 2 mps 591 mmHg 91%
    05:00 +12°C° 0.1 mm 2 mps 592 mmHg 92%
    06:00 +12°C° 0.2 mm 2 mps 592 mmHg 92%
    07:00 +12°C° 0.2 mm 2 mps 592 mmHg 92%
    08:00 +12°C° 0.2 mm 2 mps 593 mmHg 92%
    09:00 +12°C° 0 mm 2 mps 593 mmHg 89%
    10:00 +13°C° 0 mm 2 mps 593 mmHg 86%
    11:00 +13°C° 0 mm 2 mps 593 mmHg 83%
    12:00 +12°C° 0 mm 3 mps 592 mmHg 83%
    13:00 +12°C° 0 mm 3 mps 591 mmHg 82%
    14:00 +12°C° 0 mm 3 mps 591 mmHg 82%
    15:00 +11°C° 0 mm 3 mps 591 mmHg 84%
    16:00 +12°C° 0 mm 2 mps 591 mmHg 86%
    17:00 +10°C° 0 mm 2 mps 590 mmHg 88%
    18:00 +10°C° 0 mm 2 mps 591 mmHg 89%
    19:00 +10°C° 0 mm 2 mps 591 mmHg 90%
    20:00 +9°C° 0 mm 2 mps 591 mmHg 90%
    21:00 +10°C° 0 mm 1 mps 591 mmHg 90%
    22:00 +10°C° 0 mm 1 mps 591 mmHg 91%
    23:00 +10°C° 0 mm 1 mps 591 mmHg 91%

    Day after tomorrow, 16 November, Saturday

    Time Temperature Precipitation Wind Pressure Humidity
    00:00 +10°C° 0 mm 1 mps 591 mmHg 91%
    01:00 +11°C° 0 mm 1 mps 590 mmHg 90%
    02:00 +10°C° 0 mm 0 mps 590 mmHg 90%
    03:00 +9°C° 0 mm 0 mps 590 mmHg 92%
    04:00 +9°C° 0 mm 0 mps 590 mmHg 93%
    05:00 +9°C° 0 mm 0 mps 590 mmHg 94%
    06:00 +10°C° 0 mm 0 mps 590 mmHg 90%
    07:00 +11°C° 0 mm 0 mps 591 mmHg 85%
    08:00 +12°C° 0 mm 0 mps 592 mmHg 80%
    09:00 +15°C° 0 mm 1 mps 592 mmHg 74%
    10:00 +16°C° 0 mm 1 mps 592 mmHg 67%
    11:00 +19°C° 0 mm 1 mps 593 mmHg 61%
    12:00 +18°C° 0 mm 2 mps 592 mmHg 60%
    13:00 +19°C° 0 mm 2 mps 592 mmHg 58%
    14:00 +19°C° 0 mm 3 mps 591 mmHg 57%
    15:00 +18°C° 0 mm 3 mps 591 mmHg 65%
    16:00 +17°C° 0 mm 3 mps 590 mmHg 73%
    17:00 +14°C° 0 mm 3 mps 590 mmHg 81%
    18:00 +14°C° 0 mm 2 mps 590 mmHg 83%
    19:00 +14°C° 0 mm 2 mps 590 mmHg 85%
    20:00 +13°C° 0 mm 1 mps 590 mmHg 87%
    21:00 +14°C° 0 mm 1 mps 590 mmHg 86%
    22:00 +13°C° 0 mm 0 mps 590 mmHg 84%
    23:00 +13°C° 0 mm 0 mps 590 mmHg 82%

    17 November, Sunday

    Time Temperature Precipitation Wind Pressure Humidity
    00:00 +13°C° 0 mm 0 mps 590 mmHg 82%
    01:00 +13°C° 0 mm 0 mps 590 mmHg 82%
    02:00 +13°C° 0 mm 0 mps 589 mmHg 82%
    03:00 +13°C° 0 mm 0 mps 589 mmHg 84%
    04:00 +12°C° 0 mm 0 mps 589 mmHg 86%
    05:00 +12°C° 0 mm 0 mps 589 mmHg 88%
    06:00 +13°C° 0 mm 0 mps 589 mmHg 81%
    07:00 +15°C° 0 mm 1 mps 590 mmHg 75%
    08:00 +18°C° 0 mm 1 mps 591 mmHg 69%
    09:00 +19°C° 0 mm 1 mps 591 mmHg 63%
    10:00 +19°C° 0 mm 2 mps 591 mmHg 57%
    11:00 +21°C° 0 mm 3 mps 591 mmHg 51%
    12:00 +21°C° 0.1 mm 3 mps 591 mmHg 51%
    13:00 +21°C° 0.1 mm 4 mps 590 mmHg 52%
    14:00 +21°C° 0.1 mm 4 mps 590 mmHg 52%
    15:00 +20°C° 0.2 mm 3 mps 590 mmHg 59%
    16:00 +18°C° 0.2 mm 3 mps 589 mmHg 66%
    17:00 +17°C° 0.2 mm 3 mps 589 mmHg 74%
    18:00 +16°C° 0 mm 2 mps 589 mmHg 76%
    19:00 +16°C° 0 mm 2 mps 590 mmHg 79%
    20:00 +15°C° 0 mm 1 mps 590 mmHg 81%
    21:00 +15°C° 0 mm 1 mps 590 mmHg 84%
    22:00 +14°C° 0 mm 1 mps 589 mmHg 87%
    23:00 +12°C° 0 mm 0 mps 589 mmHg 90%

    18 November, Monday

    Time Temperature Precipitation Wind Pressure Humidity
    00:00 +12°C° 0 mm 0 mps 589 mmHg 90%
    01:00 +12°C° 0 mm 0 mps 588 mmHg 91%
    02:00 +11°C° 0 mm 0 mps 588 mmHg 91%
    03:00 +11°C° 0 mm 0 mps 588 mmHg 90%
    04:00 +11°C° 0 mm 0 mps 588 mmHg 90%
    05:00 +10°C° 0 mm 0 mps 587 mmHg 89%
    06:00 +11°C° 0 mm 0 mps 588 mmHg 83%
    07:00 +14°C° 0 mm 1 mps 589 mmHg 76%
    08:00 +15°C° 0 mm 1 mps 590 mmHg 70%
    09:00 +16°C° 0 mm 1 mps 590 mmHg 64%
    10:00 +19°C° 0 mm 1 mps 590 mmHg 58%
    11:00 +19°C° 0 mm 2 mps 590 mmHg 53%
    12:00 +19°C° 0 mm 2 mps 590 mmHg 52%
    13:00 +20°C° 0 mm 3 mps 590 mmHg 51%
    14:00 +20°C° 0 mm 4 mps 589 mmHg 50%
    15:00 +19°C° 0 mm 3 mps 589 mmHg 58%
    16:00 +18°C° 0 mm 3 mps 589 mmHg 66%
    17:00 +16°C° 0 mm 3 mps 588 mmHg 75%
    18:00 +16°C° 0 mm 2 mps 588 mmHg 78%
    19:00 +15°C° 0 mm 1 mps 589 mmHg 81%
    20:00 +14°C° 0 mm 0 mps 589 mmHg 84%
    21:00 +13°C° 0 mm 0 mps 589 mmHg 85%
    22:00 +13°C° 0 mm 0 mps 588 mmHg 86%
    23:00 +12°C° 0 mm 0 mps 588 mmHg 87%

    19 November, Tuesday

    Time Temperature Precipitation Wind Pressure Humidity
    00:00 +12°C° 0 mm 0 mps 588 mmHg 87%
    01:00 +11°C° 0 mm 0 mps 588 mmHg 86%
    02:00 +11°C° 0 mm 0 mps 587 mmHg 86%
    03:00 +11°C° 0 mm 0 mps 587 mmHg 86%
    04:00 +10°C° 0 mm 0 mps 588 mmHg 86%
    05:00 +11°C° 0 mm 1 mps 588 mmHg 86%
    06:00 +12°C° 0 mm 1 mps 589 mmHg 80%
    07:00 +14°C° 0 mm 1 mps 589 mmHg 74%
    08:00 +15°C° 0 mm 1 mps 590 mmHg 69%
    09:00 +16°C° 0 mm 2 mps 591 mmHg 63%
    10:00 +17°C° 0 mm 3 mps 591 mmHg 57%
    11:00 +19°C° 0 mm 3 mps 591 mmHg 50%
    12:00 +19°C° 0 mm 4 mps 591 mmHg 51%
    13:00 +18°C° 0 mm 4 mps 590 mmHg 51%
    14:00 +17°C° 0 mm 5 mps 590 mmHg 51%
    15:00 +17°C° 0 mm 4 mps 590 mmHg 56%
    16:00 +15°C° 0 mm 4 mps 590 mmHg 61%
    17:00 +13°C° 0 mm 3 mps 589 mmHg 66%
    18:00 +12°C° 0 mm 3 mps 589 mmHg 71%
    19:00 +12°C° 0 mm 2 mps 590 mmHg 77%
    20:00 +10°C° 0 mm 2 mps 590 mmHg 82%
    21:00 +11°C° 0 mm 1 mps 589 mmHg 83%
    22:00 +10°C° 0 mm 1 mps 589 mmHg 84%
    23:00 +10°C° 0 mm 1 mps 589 mmHg 85%
    Show more